Location: Baix
(44.7118°N, 4.7648°E)
Time: 23:59:24
(UTC+00:00)

Tiros 1 despin weight - All Passes

Search period start: 05 December 2020 00:00
Search period end: 15 December 2020 00:00
Orbit: 593 x 642 km, 48.2° (Epoch: 05 December)

Date Brightness Start Highest point End Pass type
(mag) Time Alt. Az. Time Alt. Az. Time Alt. Az.
05 Dec - 07:48:44 10° SSE 07:50:59 14° SE 07:53:15 10° ESE daylight
05 Dec - 09:27:16 10° SW 09:31:48 56° SSE 09:36:24 10° ENE daylight
05 Dec - 11:08:47 10° W 11:13:25 63° N 11:18:06 10° ENE daylight
05 Dec - 12:50:45 10° WNW 12:55:24 60° N 13:00:03 10° E daylight
05 Dec - 14:32:25 10° WNW 14:37:04 62° SSW 14:41:41 10° SE daylight
05 Dec - 16:15:12 10° W 16:17:59 16° SW 16:20:45 10° S daylight
06 Dec - 08:03:18 10° SSW 08:07:01 24° SE 08:10:47 10° E daylight
06 Dec - 09:43:32 10° WSW 09:48:11 85° SSE 09:52:53 10° ENE daylight
06 Dec - 11:25:24 10° W 11:30:00 56° N 11:34:38 10° ENE daylight
06 Dec - 13:07:13 10° WNW 13:11:56 75° NNE 13:16:38 10° ESE daylight
06 Dec - 14:49:00 10° WNW 14:53:21 38° SW 14:57:40 10° SSE daylight
07 Dec - 08:18:51 10° SW 08:23:11 42° SE 08:27:35 10° ENE daylight
07 Dec - 10:00:01 10° W 10:04:39 71° NNW 10:09:20 10° ENE daylight
07 Dec - 11:41:58 10° WNW 11:46:35 56° N 11:51:13 10° E daylight
07 Dec - 13:23:41 10° WNW 13:28:24 79° SSW 13:33:04 10° ESE daylight
07 Dec - 15:05:52 10° W 15:09:29 22° SW 15:13:06 10° S daylight
08 Dec - 06:55:31 10° S 06:58:31 17° SE 07:01:34 10° E daylight
08 Dec - 08:34:54 10° SW 08:39:29 68° SSE 08:44:08 10° ENE daylight
08 Dec - 10:16:36 10° W 10:21:11 59° N 10:25:50 10° ENE daylight
08 Dec - 11:58:29 10° WNW 12:03:09 65° NNE 12:07:50 10° E daylight
08 Dec - 13:40:10 10° WNW 13:44:43 51° SSW 13:49:16 10° SE daylight
08 Dec - 15:23:43 10° WSW 15:25:30 12° SW 15:27:17 10° SSW daylight
09 Dec - 07:10:36 10° SSW 07:14:37 30° SE 07:18:41 10° E daylight
09 Dec - 08:51:15 10° WSW 08:55:53 84° NNW 09:00:35 10° ENE daylight
09 Dec - 10:33:11 10° WNW 10:37:46 55° N 10:42:23 10° ENE daylight
09 Dec - 12:14:57 10° WNW 12:19:40 84° NNE 12:24:22 10° ESE daylight
09 Dec - 13:56:50 10° W 14:00:57 31° SW 14:05:03 10° SSE daylight
10 Dec - 05:48:26 10° SSE 05:50:05 12° SE 05:51:43 10° ESE visible
10 Dec - 07:26:24 10° SW 07:30:49 51° SSE 07:35:21 10° ENE daylight
10 Dec - 09:07:47 10° W 09:12:23 65° NNW 09:17:03 10° ENE daylight
10 Dec - 10:49:44 10° WNW 10:54:21 59° N 10:59:00 10° E daylight
10 Dec - 12:31:25 10° WNW 12:36:04 67° SSW 12:40:43 10° SE daylight
10 Dec - 14:13:57 10° W 14:17:02 18° SW 14:20:08 10° S daylight
11 Dec - 06:02:35 10° S 06:06:05 22° SE 06:09:37 10° E visible
11 Dec - 07:42:35 10° WSW 07:47:10 80° SSE 07:51:50 10° ENE daylight
11 Dec - 09:24:24 10° W 09:28:57 56° N 09:33:34 10° ENE daylight
11 Dec - 11:06:13 10° WNW 11:10:53 72° NNE 11:15:35 10° E daylight
11 Dec - 12:47:57 10° WNW 12:52:21 41° SW 12:56:46 10° SE daylight
12 Dec - 06:18:01 10° SSW 06:22:13 38° SE 06:26:30 10° ENE visible
12 Dec - 07:59:01 10° WSW 08:03:37 74° NNW 08:08:18 10° ENE daylight
12 Dec - 09:40:58 10° WNW 09:45:33 56° N 09:50:10 10° E daylight
12 Dec - 11:22:40 10° WNW 11:27:21 85° SSW 11:32:04 10° ESE daylight
12 Dec - 13:04:44 10° W 13:08:32 25° SW 13:12:19 10° SSE daylight
13 Dec - 04:54:58 10° S 04:57:36 15° SE 05:00:16 10° E visible
13 Dec - 06:33:59 10° SW 06:38:29 62° SSE 06:43:04 10° ENE visible
13 Dec - 08:15:35 10° W 08:20:09 60° N 08:24:46 10° ENE daylight
13 Dec - 09:57:29 10° WNW 10:02:06 63° N 10:06:46 10° E daylight
13 Dec - 11:39:09 10° WNW 11:43:43 56° SSW 11:48:18 10° SE daylight
13 Dec - 13:22:16 10° WSW 13:24:34 14° SW 13:26:52 10° SSW daylight
14 Dec - 05:09:50 10° SSW 05:13:39 27° SE 05:17:33 10° E visible
14 Dec - 06:50:18 10° WSW 06:54:52 88° NNW 06:59:32 10° ENE daylight
14 Dec - 08:32:11 10° W 08:36:43 55° N 08:41:19 10° ENE daylight
14 Dec - 10:13:57 10° WNW 10:18:37 80° NNE 10:23:19 10° ESE daylight
14 Dec - 11:55:46 10° W 11:59:58 33° SW 12:04:10 10° SSE daylight
